Flag for Germany Weather past 2 weeks in Porta Westfalica, North Rhine-Westphalia, Germany

Now
39 °F

Partly sunny.


Feels Like: 30 °F
Forecast: 34 / 38 °F
Wind: 17 mph from Southwest

Location: Bueckeburg

Current Time: Jan 28, 2015 at 10:40:28 AM

Latest Report: Jan 28, 2015 at 9:20 AM


Visibility: N/A

Pressure: 29.83 "Hg

Humidity: 87%

Dew point: 36 °F

Location of Porta WestfalicaLocation

Historic Weather in Porta Westfalica — Graph

°F

Porta Westfalica temperature yesterday

Maximum temperature yesterday: 41 °F (at 12:20 PM)
Minimum temperature yesterday: 34 °F (at 11:20 PM)
Average temperature yesterday: 38 °F

Past Weeks' High & Low Weather Summary

 TemperatureHumidityPressure
High54 °F (Jan 13, 1:20 PM)100% (Jan 20, 6:20 AM)30.33 "Hg (Jan 20, 6:20 AM)
Low27 °F (Jan 21, 7:20 AM)58% (Jan 13, 1:20 PM)29.42 "Hg (Jan 15, 2:20 PM)
Average37 °F84%29.94 "Hg
* Reported Jan 13 9:20 AM — Jan 28 9:20 AM, Porta Westfalica, Weather by CustomWeather, © 2014

Note: Actual official high and low records may vary slightly from our data, if they occured in-between our weather recording intervals... More about our weather records

Advertising

Porta Westfalica weather history for previous 24 hours

 ConditionsComfort  
Time TempWeatherWind HumidityBarometerVisibility
9:20 AM
Jan 28
39 °FPartly sunny.17 mph87%29.83 "HgN/A
8:49 AM39 °FLight rain. Partly sunny.15 mph87%29.86 "Hg6 mi
8:20 AM39 °FLight rain. Partly sunny.13 mph87%29.89 "Hg4 mi
7:20 AM39 °FPassing clouds.14 mph81%29.92 "HgN/A
7:01 AM39 °FPassing clouds.14 mph87%29.92 "HgN/A
6:20 AM39 °FPassing clouds.14 mph87%29.95 "HgN/A
5:20 AM39 °FPartly cloudy.9 mph87%29.98 "Hg5 mi
4:20 AM37 °FPassing clouds.12 mph93%30.01 "Hg5 mi
3:20 AM39 °FPassing clouds.10 mph87%30.04 "Hg5 mi
2:20 AM39 °FPassing clouds.8 mph93%30.07 "Hg5 mi
1:20 AM39 °FPassing clouds.7 mph93%30.07 "Hg5 mi
12:20 AM37 °FPartly cloudy.7 mph93%30.07 "HgN/A
11:20 PM
Jan 27
34 °FPassing clouds.2 mph100%30.09 "HgN/A
10:20 PM37 °FPassing clouds.7 mph87%30.09 "HgN/A
9:20 PM37 °FPassing clouds.7 mph93%30.09 "HgN/A
8:20 PM37 °FPassing clouds.8 mph93%30.12 "HgN/A
7:20 PM36 °FPassing clouds.1 mph93%30.12 "HgN/A
6:20 PM36 °FPassing clouds.7 mph93%30.09 "HgN/A
5:20 PM36 °FPassing clouds.7 mph93%30.09 "HgN/A
4:20 PM39 °FSprinkles. Broken clouds.7 mph87%30.09 "HgN/A
3:20 PM39 °FBroken clouds.8 mph87%30.09 "HgN/A
2:20 PM36 °FSprinkles. Broken clouds.7 mph93%30.09 "Hg5 mi
1:20 PM41 °FSprinkles. Partly sunny.14 mph81%30.07 "HgN/A
12:20 PM41 °FPartly sunny.13 mph81%30.07 "HgN/A
11:20 AM39 °FScattered clouds.14 mph87%30.09 "HgN/A
10:20 AM37 °FPassing clouds.14 mph87%30.09 "HgN/A
Weather by CustomWeather, © 2014

See weather overviewHow to use our weather pages